User: anonymous   Login
Location: Unspecified
(0.0000°N, 0.0000°E)
Time: 21:53:31
(UTC+00:00)
Language:

ALMASAT-1 - Orbit

View from above orbital plane
View from above orbital plane
View from above satellite
View from above satellite

Ground track
Ground track

The orbit data is extracted from the following two-line orbital elements,

1 38078U 12006B   17082.88506539 +.00038956 +38059-5 +47193-3 0  9995
2 38078 069.4354 001.2954 0321501 056.1187 307.0095 15.17935520271822
Epoch (UTC): 23 March 2017 21:14:29
Eccentricity: 0.0321501
inclination: 69.4354°
perigee height: 290 km
apogee height: 733 km
right ascension of ascending node: 1.2954°
argument of perigee: 56.1187°
revolutions per day: 15.17935520
mean anomaly at epoch: 307.0095°
orbit number at epoch: 27182

The dashed part of the orbit path shows where the satellite is in the earth's shadow,  

DLR